"Reporte Solmaforo desde 01/05/2023 hasta 31/05/2023","","","","","","",""
"Código","Fecha","IUV","","IUV Completo","","",""
"2773043","01/05/2023 05:00:51","0","","0","","",""
"2773044","01/05/2023 05:01:51","0","","0","","",""
"2773045","01/05/2023 05:02:51","0","","0","","",""
"2773046","01/05/2023 05:03:50","0","","0","","",""
"2773047","01/05/2023 05:04:51","0","","0","","",""
"2773048","01/05/2023 05:05:51","0","","0","","",""
"2773049","01/05/2023 05:07:51","0","","0","","",""
"2773050","01/05/2023 05:08:51","0","","0","","",""
"2773051","01/05/2023 05:09:51","0","","0","","",""
"2773052","01/05/2023 05:10:51","0","","0","","",""
"2773053","01/05/2023 05:11:51","0","","0","","",""
"2773054","01/05/2023 05:12:50","0","","0","","",""
"2773055","01/05/2023 05:14:50","0","","0","","",""
"2773056","01/05/2023 05:15:51","0","","0","","",""
"2773057","01/05/2023 05:16:51","0","","0","","",""
"2773058","01/05/2023 05:17:51","0","","0","","",""
"2773059","01/05/2023 05:18:51","0","","0","","",""
"2773060","01/05/2023 05:19:50","0","","0","","",""
"2773061","01/05/2023 05:21:51","0","","0","","",""
"2773062","01/05/2023 05:22:51","0","","0","","",""
"2773063","01/05/2023 05:23:51","0","","0","","",""
"2773064","01/05/2023 05:24:51","0","","0","","",""
"2773065","01/05/2023 05:25:51","0","","0","","",""
"2773066","01/05/2023 05:26:51","0","","0","","",""
"2773067","01/05/2023 05:28:50","0","","0","","",""
"2773068","01/05/2023 05:29:51","0","","0","","",""
"2773069","01/05/2023 05:30:51","0","","0","","",""
"2773070","01/05/2023 05:31:51","0","","0","","",""
"2773071","01/05/2023 05:32:50","0","","0","","",""
"2773072","01/05/2023 05:33:51","0","","0","","",""
"2773073","01/05/2023 05:35:51","0","","0","","",""
"2773074","01/05/2023 05:36:50","0","","0","","",""
"2773075","01/05/2023 05:37:51","0","","0","","",""
"2773076","01/05/2023 05:38:51","0","","0","","",""
"2773077","01/05/2023 05:39:50","0","","0","","",""
"2773078","01/05/2023 05:40:51","0","","0","","",""
"2773079","01/05/2023 05:42:51","0","","0","","",""
"2773080","01/05/2023 05:43:51","0","","0","","",""
"2773081","01/05/2023 05:44:51","0","","0","","",""
"2773082","01/05/2023 05:45:50","0","","0","","",""
"2773083","01/05/2023 05:46:51","0","","0","","",""
"2773084","01/05/2023 05:47:51","0","","0","","",""
"2773085","01/05/2023 05:49:51","0","","0","","",""
"2773086","01/05/2023 05:50:50","0","","0","","",""
"2773087","01/05/2023 05:51:51","0","","0","","",""
"2773088","01/05/2023 05:52:51","0","","0.0004","","",""
"2773089","01/05/2023 05:53:51","0","","0.0004","","",""
"2773090","01/05/2023 05:54:51","0","","0.0008","","",""
"2773091","01/05/2023 05:56:51","0","","0.0016","","",""
"2773092","01/05/2023 05:57:51","0","","0.002","","",""
"2773093","01/05/2023 05:58:51","0","","0.0032","","",""
"2773094","01/05/2023 05:59:50","0","","0.004","","",""
"2773095","01/05/2023 06:00:51","0","","0.0052","","",""
"2773096","01/05/2023 06:01:50","0","","0.0064","","",""
"2773097","01/05/2023 06:03:51","0","","0.0088","","",""
"2773098","01/05/2023 06:04:51","0","","0.01","","",""
"2773099","01/05/2023 06:05:51","0","","0.0116","","",""
"2773100","01/05/2023 06:06:51","0","","0.014","","",""
"2773101","01/05/2023 06:07:51","0","","0.0172","","",""
"2773102","01/05/2023 06:08:51","0","","0.0188","","",""
"2773103","01/05/2023 06:10:50","0","","0.0228","","",""
"2773104","01/05/2023 06:11:51","0","","0.0264","","",""
"2773105","01/05/2023 06:12:51","0","","0.0304","","",""
"2773106","01/05/2023 06:13:51","0","","0.032","","",""
"2773107","01/05/2023 06:14:51","0","","0.0328","","",""
"2773108","01/05/2023 06:15:50","0","","0.0352","","",""
"2773109","01/05/2023 06:17:51","0","","0.0448","","",""
"2773110","01/05/2023 06:18:51","0","","0.0508","","",""
"2773111","01/05/2023 06:19:51","0","","0.0588","","",""
"2773112","01/05/2023 06:20:51","0","","0.0616","","",""
"2773113","01/05/2023 06:21:50","0","","0.0588","","",""
"2773114","01/05/2023 06:22:51","0","","0.0528","","",""
"2773115","01/05/2023 06:24:51","0","","0.052","","",""
"2773116","01/05/2023 06:25:51","0","","0.0568","","",""
"2773117","01/05/2023 06:26:51","0","","0.0616","","",""
"2773118","01/05/2023 06:27:51","0","","0.0656","","",""
"2773119","01/05/2023 06:28:51","0","","0.0768","","",""
"2773120","01/05/2023 06:29:50","0","","0.0884","","",""
"2773121","01/05/2023 06:31:50","0","","0.1172","","",""
"2773122","01/05/2023 06:32:51","0","","0.1408","","",""
"2773123","01/05/2023 06:33:50","0","","0.1804","","",""
"2773124","01/05/2023 06:34:51","0","","0.2156","","",""
"2773125","01/05/2023 06:35:51","0","","0.2416","","",""
"2773126","01/05/2023 06:36:51","0","","0.2576","","",""
"2773127","01/05/2023 06:38:51","0","","0.282","","",""
"2773128","01/05/2023 06:39:51","0","","0.2728","","",""
"2773129","01/05/2023 06:40:51","0","","0.2676","","",""
"2773130","01/05/2023 06:41:51","0","","0.278","","",""
"2773131","01/05/2023 06:42:51","0","","0.3168","","",""
"2773132","01/05/2023 06:43:51","0","","0.3716","","",""
"2773133","01/05/2023 06:45:51","0","","0.448","","",""
"2773134","01/05/2023 06:46:50","0","","0.494","","",""
"2773135","01/05/2023 06:47:50","0","","0.494","","",""
"2773136","01/05/2023 06:48:51","0","","0.498","","",""
"2773137","01/05/2023 06:49:51","1","","0.5472","","",""
"2773138","01/05/2023 06:50:51","1","","0.558","","",""
"2773139","01/05/2023 06:52:51","1","","0.52","","",""
"2773140","01/05/2023 06:53:51","1","","0.5548","","",""
"2773141","01/05/2023 06:54:51","1","","0.6444","","",""
"2773142","01/05/2023 06:55:50","1","","0.7572","","",""
"2773143","01/05/2023 06:56:50","1","","0.8168","","",""
"2773144","01/05/2023 06:57:51","1","","0.7996","","",""
"2773145","01/05/2023 06:59:51","1","","0.6924","","",""
"2773146","01/05/2023 07:00:51","1","","0.664","","",""
"2773147","01/05/2023 07:01:52","1","","0.5596","","",""
"2773148","01/05/2023 07:02:50","1","","0.5624","","",""
"2773149","01/05/2023 07:03:51","1","","0.5764","","",""
"2773150","01/05/2023 07:04:51","1","","0.5816","","",""
"2773151","01/05/2023 07:05:51","1","","0.5408","","",""
"2773152","01/05/2023 07:06:51","0","","0.4816","","",""
"2773153","01/05/2023 07:07:50","0","","0.4488","","",""
"2773154","01/05/2023 07:08:51","0","","0.4372","","",""
"2773155","01/05/2023 07:09:50","0","","0.4584","","",""
"2773156","01/05/2023 07:10:51","0","","0.4944","","",""
"2773157","01/05/2023 07:11:50","1","","0.5468","","",""
"2773158","01/05/2023 07:12:51","1","","0.5964","","",""
"2773159","01/05/2023 07:13:51","1","","0.6532","","",""
"2773160","01/05/2023 07:14:50","1","","0.7004","","",""
"2773161","01/05/2023 07:15:51","1","","0.7388","","",""
"2773162","01/05/2023 07:16:51","1","","0.7748","","",""
"2773163","01/05/2023 07:17:51","1","","0.7848","","",""
"2773164","01/05/2023 07:18:51","1","","0.7964","","",""
"2773165","01/05/2023 07:19:51","1","","0.7964","","",""
"2773166","01/05/2023 07:20:51","1","","0.7832","","",""
"2773167","01/05/2023 07:21:50","1","","0.792","","",""
"2773168","01/05/2023 07:22:51","1","","0.8324","","",""
"2773169","01/05/2023 07:23:51","1","","0.8848","","",""
"2773170","01/05/2023 07:24:51","1","","0.9172","","",""
"2773171","01/05/2023 07:25:51","1","","0.9448","","",""
"2773172","01/05/2023 07:26:51","1","","0.9816","","",""
"2773173","01/05/2023 07:27:50","1","","1.0228","","",""
"2773174","01/05/2023 07:28:51","1","","1.0572","","",""
"2773175","01/05/2023 07:29:51","1","","1.058","","",""
"2773176","01/05/2023 07:30:51","1","","1.058","","",""
"2773177","01/05/2023 07:31:51","1","","1.0612","","",""
"2773178","01/05/2023 07:32:51","1","","1.078","","",""
"2773179","01/05/2023 07:33:51","1","","1.1108","","",""
"2773180","01/05/2023 07:34:51","1","","1.1228","","",""
"2773181","01/05/2023 07:35:51","1","","1.0936","","",""
"2773182","01/05/2023 07:36:51","1","","1.0668","","",""
"2773183","01/05/2023 07:37:51","1","","0.9944","","",""
"2773184","01/05/2023 07:38:50","1","","0.9228","","",""
"2773185","01/05/2023 07:39:50","1","","0.8416","","",""
"2773186","01/05/2023 07:40:51","1","","0.768","","",""
"2773187","01/05/2023 07:41:51","1","","0.7164","","",""
"2773188","01/05/2023 07:42:51","1","","0.7076","","",""
"2773189","01/05/2023 07:43:50","1","","0.714","","",""
"2773190","01/05/2023 07:44:51","1","","0.694","","",""
"2773191","01/05/2023 07:45:50","1","","0.7116","","",""
"2773192","01/05/2023 07:46:51","1","","0.798","","",""
"2773193","01/05/2023 07:47:50","1","","0.93","","",""
"2773194","01/05/2023 07:48:50","1","","1.0732","","",""
"2773195","01/05/2023 07:49:51","1","","1.1112","","",""
"2773196","01/05/2023 07:50:51","1","","1.0608","","",""
"2773197","01/05/2023 07:51:51","1","","1.0324","","",""
"2773198","01/05/2023 07:52:51","1","","1.0196","","",""
"2773199","01/05/2023 07:53:51","1","","1.0756","","",""
"2773200","01/05/2023 07:54:51","1","","1.134","","",""
"2773201","01/05/2023 07:55:51","1","","1.1988","","",""
"2773202","01/05/2023 07:56:50","1","","1.2144","","",""
"2773203","01/05/2023 07:57:51","1","","1.2408","","",""
"2773204","01/05/2023 07:58:51","1","","1.286","","",""
"2773205","01/05/2023 07:59:50","1","","1.2604","","",""
"2773206","01/05/2023 08:00:51","1","","1.2612","","",""
"2773207","01/05/2023 08:01:50","1","","1.2896","","",""
"2773208","01/05/2023 08:02:51","1","","1.2824","","",""
"2773209","01/05/2023 08:03:51","1","","1.3012","","",""
"2773210","01/05/2023 08:04:51","2","","1.5096","","",""
"2773211","01/05/2023 08:05:51","1","","1.3232","","",""
"2773212","01/05/2023 08:06:50","1","","1.272","","",""
"2773213","01/05/2023 08:07:51","1","","1.4752","","",""
"2773214","01/05/2023 08:08:51","2","","1.6244","","",""
"2773215","01/05/2023 08:09:51","2","","1.5548","","",""
"2773216","01/05/2023 08:10:51","1","","1.4796","","",""
"2773217","01/05/2023 08:11:51","2","","1.5212","","",""
"2773218","01/05/2023 08:12:50","2","","1.502","","",""
"2773219","01/05/2023 08:13:51","1","","1.4892","","",""
"2773220","01/05/2023 08:14:50","2","","1.522","","",""
"2773221","01/05/2023 08:15:50","1","","1.458","","",""
"2773222","01/05/2023 08:16:51","1","","1.408","","",""
"2773223","01/05/2023 08:17:51","1","","1.3084","","",""
"2773224","01/05/2023 08:18:51","1","","1.2232","","",""
"2773225","01/05/2023 08:19:51","1","","1.188","","",""
"2773226","01/05/2023 08:20:51","1","","1.132","","",""
"2773227","01/05/2023 08:21:51","1","","1.1384","","",""
"2773228","01/05/2023 08:22:51","1","","1.168","","",""
"2773229","01/05/2023 08:23:51","1","","1.2268","","",""
"2773230","01/05/2023 08:24:50","1","","1.2844","","",""
"2773231","01/05/2023 08:25:51","1","","1.2388","","",""
"2773232","01/05/2023 08:26:51","1","","1.1412","","",""
"2773233","01/05/2023 08:27:51","1","","1.0668","","",""
"2773234","01/05/2023 08:28:51","1","","0.9848","","",""
"2773235","01/05/2023 08:29:51","1","","0.9912","","",""
"2773236","01/05/2023 08:30:51","1","","1.0868","","",""
"2773237","01/05/2023 08:31:51","1","","1.11","","",""
"2773238","01/05/2023 08:32:51","1","","1.0872","","",""
"2773239","01/05/2023 08:33:50","1","","1.0368","","",""
"2773240","01/05/2023 08:34:50","1","","1.022","","",""
"2773241","01/05/2023 08:35:50","1","","1.0508","","",""
"2773242","01/05/2023 08:36:51","1","","1.118","","",""
"2773243","01/05/2023 08:37:50","1","","1.1288","","",""
"2773244","01/05/2023 08:38:51","1","","1.1312","","",""
"2773245","01/05/2023 08:39:51","1","","1.1228","","",""
"2773246","01/05/2023 08:40:50","1","","1.0552","","",""
"2773247","01/05/2023 08:41:51","1","","1.0228","","",""
"2773248","01/05/2023 08:42:51","1","","1.0784","","",""
"2773249","01/05/2023 08:43:51","1","","1.0984","","",""
"2773250","01/05/2023 08:44:51","1","","1.0404","","",""
"2773251","01/05/2023 08:45:51","1","","0.9516","","",""
"2773252","01/05/2023 08:46:50","1","","0.8544","","",""
"2773253","01/05/2023 08:47:51","1","","0.7628","","",""
"2773254","01/05/2023 08:48:50","1","","0.7312","","",""
"2773255","01/05/2023 08:49:50","1","","0.7812","","",""
"2773256","01/05/2023 08:50:51","1","","0.8456","","",""
"2773257","01/05/2023 08:51:50","1","","0.8432","","",""
"2773258","01/05/2023 08:52:51","1","","0.8088","","",""
"2773259","01/05/2023 08:53:50","1","","0.8052","","",""
"2773260","01/05/2023 08:54:51","1","","0.8752","","",""
"2773261","01/05/2023 08:55:51","1","","0.9724","","",""
"2773262","01/05/2023 08:56:51","1","","1.0468","","",""
"2773263","01/05/2023 08:57:51","1","","1.084","","",""
"2773264","01/05/2023 08:58:50","1","","1.0824","","",""
"2773265","01/05/2023 08:59:51","1","","1.0824","","",""
"2773266","01/05/2023 09:00:51","1","","1.0796","","",""
"2773267","01/05/2023 09:01:50","1","","1.0684","","",""
"2773268","01/05/2023 09:02:50","1","","1.1304","","",""
"2773269","01/05/2023 09:03:51","1","","1.406","","",""
"2773270","01/05/2023 09:04:51","2","","1.6724","","",""
"2773271","01/05/2023 09:05:51","2","","1.862","","",""
"2773272","01/05/2023 09:06:50","2","","1.9408","","",""
"2773273","01/05/2023 09:07:51","2","","1.756","","",""
"2773274","01/05/2023 09:08:51","1","","1.4996","","",""
"2773275","01/05/2023 09:09:51","1","","1.362","","",""
"2773276","01/05/2023 09:10:51","1","","1.3148","","",""
"2773277","01/05/2023 09:11:50","1","","1.2948","","",""
"2773278","01/05/2023 09:12:51","1","","1.2852","","",""
"2773279","01/05/2023 09:13:51","1","","1.2412","","",""
"2773280","01/05/2023 09:14:51","1","","1.2424","","",""
"2773281","01/05/2023 09:15:50","1","","1.2012","","",""
"2773282","01/05/2023 09:16:50","1","","1.1356","","",""
"2773283","01/05/2023 09:17:50","1","","1.1288","","",""
"2773284","01/05/2023 09:18:51","1","","1.2072","","",""
"2773285","01/05/2023 09:19:51","1","","1.3352","","",""
"2773286","01/05/2023 09:20:51","1","","1.4592","","",""
"2773287","01/05/2023 09:21:51","2","","1.6364","","",""
"2773288","01/05/2023 09:22:50","2","","1.7452","","",""
"2773289","01/05/2023 09:23:50","2","","1.8364","","",""
"2773290","01/05/2023 09:24:51","2","","1.9208","","",""
"2773291","01/05/2023 09:25:51","2","","1.952","","",""
"2773292","01/05/2023 09:26:51","2","","1.9908","","",""
"2773293","01/05/2023 09:27:51","2","","2.0372","","",""
"2773294","01/05/2023 09:28:51","2","","2.1108","","",""
"2773295","01/05/2023 09:29:51","2","","2.1152","","",""
"2773296","01/05/2023 09:30:51","2","","1.9284","","",""
"2773297","01/05/2023 09:31:51","2","","1.7432","","",""
"2773298","01/05/2023 09:32:50","2","","1.7212","","",""
"2773299","01/05/2023 09:33:51","2","","1.594","","",""
"2773300","01/05/2023 09:34:51","2","","1.6012","","",""
"2773301","01/05/2023 09:35:51","2","","1.706","","",""
"2773302","01/05/2023 09:36:50","2","","1.7644","","",""
"2773303","01/05/2023 09:37:51","2","","2.2728","","",""
"2773304","01/05/2023 09:38:50","3","","2.832","","",""
"2773305","01/05/2023 09:39:51","4","","4.2236","","",""
"2773306","01/05/2023 09:40:50","4","","4.1476","","",""
"2773307","01/05/2023 09:41:50","4","","3.6296","","",""
"2773308","01/05/2023 09:42:51","4","","4.0772","","",""
"2773309","01/05/2023 09:43:50","4","","3.52","","",""
"2773310","01/05/2023 09:44:51","2","","2.276","","",""
"2773311","01/05/2023 09:45:51","2","","2.0052","","",""
"2773312","01/05/2023 09:46:51","2","","2.0268","","",""
"2773313","01/05/2023 09:47:50","2","","2.0252","","",""
"2773314","01/05/2023 09:48:51","3","","3.1816","","",""
"2773315","01/05/2023 09:49:51","3","","2.7388","","",""
"2773316","01/05/2023 09:50:50","4","","3.5048","","",""
"2773317","01/05/2023 09:51:51","3","","3.474","","",""
"2773318","01/05/2023 09:52:50","3","","3.0408","","",""
"2773319","01/05/2023 09:53:51","3","","3.3884","","",""
"2773320","01/05/2023 09:54:51","4","","3.8996","","",""
"2773321","01/05/2023 09:55:51","3","","3.342","","",""
"2773322","01/05/2023 09:56:51","6","","5.8932","","",""
"2773323","01/05/2023 09:57:51","4","","4.2316","","",""
"2773324","01/05/2023 09:58:50","3","","2.5424","","",""
"2773325","01/05/2023 09:59:51","2","","2.4348","","",""
"2773326","01/05/2023 10:00:51","3","","3.244","","",""
"2773327","01/05/2023 10:01:50","3","","2.8328","","",""
"2773328","01/05/2023 10:02:51","2","","2.3148","","",""
"2773329","01/05/2023 10:03:51","2","","1.9864","","",""
"2773330","01/05/2023 10:04:51","2","","1.7804","","",""
"2773331","01/05/2023 10:05:50","2","","1.948","","",""
"2773332","01/05/2023 10:06:51","3","","2.6916","","",""
"2773333","01/05/2023 10:07:51","2","","2.1624","","",""
"2773334","01/05/2023 10:08:51","2","","1.9064","","",""
"2773335","01/05/2023 10:09:51","2","","1.8644","","",""
"2773336","01/05/2023 10:10:50","2","","1.8772","","",""
"2773337","01/05/2023 10:11:51","2","","1.8948","","",""
"2773338","01/05/2023 10:12:50","2","","1.884","","",""
"2773339","01/05/2023 10:13:50","2","","1.8484","","",""
"2773340","01/05/2023 10:14:51","2","","1.7192","","",""
"2773341","01/05/2023 10:15:51","2","","1.6344","","",""
"2773342","01/05/2023 10:16:50","2","","1.7336","","",""
"2773343","01/05/2023 10:17:50","2","","1.8812","","",""
"2773344","01/05/2023 10:18:51","2","","2.0372","","",""
"2773345","01/05/2023 10:19:50","2","","2.2276","","",""
"2773346","01/05/2023 10:20:51","3","","2.6344","","",""
"2773347","01/05/2023 10:21:50","4","","3.6756","","",""
"2773348","01/05/2023 10:22:51","4","","3.7164","","",""
"2773349","01/05/2023 10:23:51","3","","3.408","","",""
"2773350","01/05/2023 10:24:50","4","","3.5276","","",""
"2773351","01/05/2023 10:25:50","5","","5.378","","",""
"2773352","01/05/2023 10:26:50","8","","7.5456","","",""
"2773353","01/05/2023 10:27:51","4","","4.0396","","",""
"2773354","01/05/2023 10:28:50","5","","4.572","","",""
"2773355","01/05/2023 10:29:51","3","","3.098","","",""
"2773356","01/05/2023 10:30:51","4","","3.51","","",""
"2773357","01/05/2023 10:31:51","3","","2.6312","","",""
"2773358","01/05/2023 10:32:51","2","","2.3964","","",""
"2773359","01/05/2023 10:33:50","3","","2.514","","",""
"2773360","01/05/2023 10:34:51","3","","2.8796","","",""
"2773361","01/05/2023 10:35:50","3","","3.3204","","",""
"2773362","01/05/2023 10:36:51","5","","5.2996","","",""
"2773363","01/05/2023 10:37:50","8","","7.596","","",""
"2773364","01/05/2023 10:38:50","7","","7.3284","","",""
"2773365","01/05/2023 10:39:50","4","","3.7308","","",""
"2773366","01/05/2023 10:40:51","3","","3.2728","","",""
"2773367","01/05/2023 10:41:50","3","","3.0572","","",""
"2773368","01/05/2023 10:42:51","5","","4.5276","","",""
"2773369","01/05/2023 10:43:50","7","","7.2284","","",""
"2773370","01/05/2023 10:44:51","7","","7.0892","","",""
"2773371","01/05/2023 10:45:50","6","","6.1272","","",""
"2773372","01/05/2023 10:46:51","4","","3.6416","","",""
"2773373","01/05/2023 10:47:50","3","","2.704","","",""
"2773374","01/05/2023 10:48:50","3","","2.768","","",""
"2773375","01/05/2023 10:49:51","4","","3.5616","","",""
"2773376","01/05/2023 10:50:51","3","","2.5204","","",""
"2773377","01/05/2023 10:51:50","2","","2.2524","","",""
"2773378","01/05/2023 10:52:51","2","","2.2684","","",""
"2773379","01/05/2023 10:53:50","2","","2.3216","","",""
"2773380","01/05/2023 10:54:51","2","","2.272","","",""
"2773381","01/05/2023 10:55:51","2","","2.2848","","",""
"2773382","01/05/2023 10:56:51","2","","2.4848","","",""
"2773383","01/05/2023 10:57:51","3","","2.9548","","",""
"2773384","01/05/2023 10:58:50","3","","3.4268","","",""
"2773385","01/05/2023 10:59:51","3","","3.4572","","",""
"2773386","01/05/2023 11:00:51","3","","3.2096","","",""
"2773387","01/05/2023 11:01:51","3","","3.154","","",""
"2773388","01/05/2023 11:02:51","3","","3.0796","","",""
"2773389","01/05/2023 11:03:51","3","","3.0472","","",""
"2773390","01/05/2023 11:04:50","3","","3.0024","","",""
"2773391","01/05/2023 11:05:51","3","","2.9944","","",""
"2773392","01/05/2023 11:06:51","3","","3.1324","","",""
"2773393","01/05/2023 11:07:51","4","","3.6612","","",""
"2773394","01/05/2023 11:08:51","4","","3.764","","",""
"2773395","01/05/2023 11:09:50","5","","4.7556","","",""
"2773396","01/05/2023 11:10:51","4","","3.7624","","",""
"2773397","01/05/2023 11:11:51","4","","3.8628","","",""
"2773398","01/05/2023 11:12:51","4","","3.858","","",""
"2773399","01/05/2023 11:13:51","4","","3.6044","","",""
"2773400","01/05/2023 11:14:51","4","","4.2488","","",""
"2773401","01/05/2023 11:15:50","5","","5.4512","","",""
"2773402","01/05/2023 11:16:51","5","","4.9292","","",""
"2773403","01/05/2023 11:17:50","5","","4.9112","","",""
"2773404","01/05/2023 11:18:51","5","","5.4788","","",""
"2773405","01/05/2023 11:19:51","5","","4.5452","","",""
"2773406","01/05/2023 11:20:50","4","","4.3864","","",""
"2773407","01/05/2023 11:21:51","4","","4.006","","",""
"2773408","01/05/2023 11:22:51","3","","3.4144","","",""
"2773409","01/05/2023 11:23:51","3","","3.226","","",""
"2773410","01/05/2023 11:24:51","3","","3.458","","",""
"2773411","01/05/2023 11:25:51","5","","5.1932","","",""
"2773412","01/05/2023 11:26:51","6","","5.6232","","",""
"2773413","01/05/2023 11:27:50","5","","5.1148","","",""
"2773414","01/05/2023 11:28:51","5","","4.7344","","",""
"2773415","01/05/2023 11:29:50","5","","4.8552","","",""
"2773416","01/05/2023 11:30:51","5","","4.6884","","",""
"2773417","01/05/2023 11:31:51","4","","4.4412","","",""
"2773418","01/05/2023 11:32:51","4","","4.0896","","",""
"2773419","01/05/2023 11:33:51","4","","4.1448","","",""
"2773420","01/05/2023 11:34:51","4","","3.94","","",""
"2773421","01/05/2023 11:35:50","4","","4.0208","","",""
"2773422","01/05/2023 11:36:51","4","","3.9924","","",""
"2773423","01/05/2023 11:37:51","4","","4.3552","","",""
"2773424","01/05/2023 11:38:51","5","","5.2936","","",""
"2773425","01/05/2023 11:39:50","6","","6.3392","","",""
"2773426","01/05/2023 11:40:51","8","","7.528","","",""
"2773427","01/05/2023 11:41:51","8","","8.0408","","",""
"2773428","01/05/2023 11:42:50","8","","7.936","","",""
"2773429","01/05/2023 11:43:51","7","","7.1336","","",""
"2773430","01/05/2023 11:44:51","8","","7.5416","","",""
"2773431","01/05/2023 11:45:51","7","","7.0176","","",""
"2773432","01/05/2023 11:46:51","6","","6.27","","",""
"2773433","01/05/2023 11:47:50","6","","6.2912","","",""
"2773434","01/05/2023 11:48:50","6","","6.0528","","",""
"2773435","01/05/2023 11:49:51","5","","5.4672","","",""
"2773436","01/05/2023 11:50:51","5","","5.1536","","",""
"2773437","01/05/2023 11:51:50","5","","4.5476","","",""
"2773438","01/05/2023 11:52:51","4","","4.4804","","",""
"2773439","01/05/2023 11:53:51","4","","4.1748","","",""
"2773440","01/05/2023 11:54:50","4","","3.8472","","",""
"2773441","01/05/2023 11:55:51","4","","3.838","","",""
"2773442","01/05/2023 11:56:50","4","","4.018","","",""
"2773443","01/05/2023 11:57:50","4","","4.0764","","",""
"2773444","01/05/2023 11:58:50","5","","4.9512","","",""
"2773445","01/05/2023 11:59:51","7","","6.5748","","",""
"2773446","01/05/2023 12:00:51","6","","5.8888","","",""
"2773447","01/05/2023 12:01:50","6","","6.4456","","",""
"2773448","01/05/2023 12:02:51","6","","5.718","","",""
"2773449","01/05/2023 12:03:50","5","","5.0736","","",""
"2773450","01/05/2023 12:04:50","6","","6.1048","","",""
"2773451","01/05/2023 12:05:51","7","","7.4656","","",""
"2773452","01/05/2023 12:06:51","7","","6.938","","",""
"2773453","01/05/2023 12:07:50","6","","5.6848","","",""
"2773454","01/05/2023 12:08:50","6","","6.048","","",""
"2773455","01/05/2023 12:09:51","7","","6.774","","",""
"2773456","01/05/2023 12:10:51","7","","6.7744","","",""
"2773457","01/05/2023 12:11:50","8","","7.6724","","",""
"2773458","01/05/2023 12:12:50","6","","5.8152","","",""
"2773459","01/05/2023 12:13:51","4","","4.264","","",""
"2773460","01/05/2023 12:14:51","6","","6.2764","","",""
"2773461","01/05/2023 12:15:50","9","","8.5716","","",""
"2773462","01/05/2023 12:16:51","8","","7.9672","","",""
"2773463","01/05/2023 12:17:50","9","","8.8956","","",""
"2773464","01/05/2023 12:18:51","9","","8.7748","","",""
"2773465","01/05/2023 12:19:51","8","","8.304","","",""
"2773466","01/05/2023 12:20:51","7","","7.2296","","",""